Flag for Poland Weather past 2 weeks in Gdansk, Poland

Now
48 °F

Passing clouds.


Feels Like: 45 °F
Forecast: 47 / 65 °F
Wind: 7 mph from Northeast

Location: Gdansk-Rebiechowo


UV Index: 0 (Low)

Visibility: N/A


Pressure: 30.07 "Hg

Humidity: 76%

Dew point: 41 °F

Location of GdanskLocation

Historic Weather in Gdansk

°F

Gdansk temperature yesterday

Maximum temperature yesterday: 59 °F (at 3:00 PM)
Minimum temperature yesterday: 41 °F (at 4:30 AM)
Average temperature yesterday: 49 °F

Past Weeks' High & Low Weather Summary

 TemperatureHumidityPressure
High70 °F (Apr 8, 1:30 PM)100% (Apr 8, 5:00 AM)30.39 "Hg (Apr 8, 5:00 AM)
Low28 °F (Apr 17, 4:00 AM)28% (Apr 5, 4:30 PM)29.53 "Hg (Apr 14, 1:00 PM)
Average45 °F72%29.96 "Hg
* Reported Apr 4 2:00 AM — Apr 19 2:00 AM, Gdansk, Weather by CustomWeather, © 2014

Note: Actual official high and low records may vary slightly from our data, if they occured in-between our weather recording intervals... More about our weather records

Advertising

Historic Weather Conditions — Data for Previous 24 hours

 ConditionsComfort  
Time TempWeatherWind HumidityBarometerVisibility
2:00 AM
Apr 19
48 °FPassing clouds.8 mph76%30.07 "HgN/A
1:30 AM48 °FPassing clouds.6 mph82%30.07 "HgN/A
1:00 AM48 °FClear.8 mph82%30.07 "Hg10 mi
12:30 AM48 °FClear.7 mph82%30.04 "Hg10 mi
12:00 AM46 °FClear.5 mph82%30.04 "Hg10 mi
11:30 PM
Apr 18
46 °FClear.3 mph82%30.04 "Hg10 mi
11:00 PM46 °FClear.5 mph76%30.01 "Hg10 mi
10:30 PM46 °FClear.5 mph76%30.01 "Hg10 mi
10:00 PM48 °FClear.6 mph66%30.01 "Hg10 mi
9:30 PM48 °FClear.5 mph66%29.98 "Hg10 mi
9:00 PM48 °FClear.3 mph71%29.98 "Hg10 mi
8:30 PM48 °FSunny.6 mph71%29.95 "Hg10 mi
8:00 PM50 °FSunny.6 mph62%29.95 "Hg10 mi
7:30 PM54 °FSunny.9 mph54%29.92 "Hg10 mi
7:00 PM55 °FSunny.8 mph47%29.89 "Hg10 mi
6:30 PM57 °FSunny.10 mph41%29.89 "Hg10 mi
6:00 PM59 °FSunny.14 mph42%29.86 "Hg10 mi
5:30 PM59 °FPassing clouds.7 mph31%29.86 "HgN/A
5:00 PM59 °FPassing clouds.8 mph34%29.86 "HgN/A
4:30 PM57 °FPassing clouds.10 mph39%29.86 "HgN/A
4:00 PM59 °FPassing clouds.9 mph34%29.83 "HgN/A
3:30 PM57 °FPassing clouds.12 mph36%29.83 "HgN/A
3:00 PM59 °FPassing clouds.9 mph34%29.83 "HgN/A
2:30 PM57 °FPassing clouds.10 mph41%29.80 "HgN/A
2:00 PM57 °FPassing clouds.14 mph33%29.80 "HgN/A
1:30 PM57 °FPassing clouds.13 mph36%29.80 "HgN/A
1:00 PM57 °FPassing clouds.10 mph39%29.77 "HgN/A
12:30 PM55 °FPassing clouds.10 mph36%29.77 "HgN/A
12:00 PM55 °FPassing clouds.13 mph33%29.77 "HgN/A
11:30 AM54 °FPassing clouds.12 mph41%29.77 "HgN/A
11:00 AM52 °FPassing clouds.10 mph47%29.77 "HgN/A
10:30 AM52 °FPassing clouds.9 mph50%29.77 "HgN/A
10:00 AM50 °FPassing clouds.8 mph54%29.74 "HgN/A
9:30 AM48 °FPassing clouds.7 mph58%29.74 "HgN/A
9:00 AM46 °FPassing clouds.7 mph62%29.74 "HgN/A
8:30 AM46 °FPassing clouds.7 mph62%29.74 "HgN/A
8:00 AM43 °FPassing clouds.6 mph66%29.74 "HgN/A
7:30 AM43 °FPassing clouds.7 mph66%29.74 "HgN/A
7:00 AM41 °FPassing clouds.6 mph70%29.74 "HgN/A
6:30 AM41 °FPassing clouds.7 mph70%29.74 "HgN/A
6:00 AM41 °FPassing clouds.6 mph70%29.77 "HgN/A
5:30 AM41 °FPassing clouds.7 mph66%29.77 "HgN/A
5:00 AM41 °FPassing clouds.7 mph66%29.77 "HgN/A
4:30 AM41 °FPassing clouds.7 mph66%29.77 "HgN/A
4:00 AM43 °FPassing clouds.6 mph61%29.80 "HgN/A
3:30 AM43 °FPassing clouds.5 mph57%29.80 "HgN/A
3:00 AM43 °FPassing clouds.6 mph57%29.83 "HgN/A
Weather by CustomWeather, © 2014

See weather overview